Flag for Albania Weather past 2 weeks in Tirana, Albania

Now
77 °F

Passing clouds.


Feels Like: 79 °F
Forecast: 70 / 89 °F
Wind: 5 mph from South

Location: Tirana Airport

Current Time: Aug 20, 2014 at 9:27:56 PM

Latest Report: Aug 20, 2014 at 8:50 PM


Visibility: N/A

Pressure: 30.01 "Hg

Humidity: 74%

Dew point: 68 °F

Location of TiranaLocation

Historic Weather in Tirana — Graph

°F

Tirana temperature yesterday

Maximum temperature yesterday: 86 °F (at 1:50 PM)
Minimum temperature yesterday: 59 °F (at 4:20 AM)
Average temperature yesterday: 72 °F

Past Weeks' High & Low Weather Summary

 TemperatureHumidityPressure
High97 °F (Aug 13, 12:50 PM)94% (Aug 5, 10:20 PM)30.01 "Hg (Aug 5, 10:20 PM)
Low59 °F (Aug 19, 4:20 AM)26% (Aug 14, 2:50 PM)29.74 "Hg (Aug 6, 1:20 PM)
Average76 °F66%29.91 "Hg
* Reported Aug 5 8:20 PM — Aug 20 8:20 PM, Tirana, Weather by CustomWeather, © 2014

Note: Actual official high and low records may vary slightly from our data, if they occured in-between our weather recording intervals... More about our weather records

Advertising

Tirana weather history for previous 24 hours

 ConditionsComfort  
Time TempWeatherWind HumidityBarometerVisibility
8:20 PM
Aug 20
77 °FPassing clouds.2 mph79%30.01 "HgN/A
7:50 PM77 °FScattered clouds.3 mph74%30.01 "HgN/A
7:20 PM79 °FPartly sunny.6 mph70%30.01 "HgN/A
6:50 PM79 °FPassing clouds.6 mph65%30.01 "HgN/A
6:20 PM81 °FPassing clouds.5 mph62%30.01 "HgN/A
5:50 PM81 °FPassing clouds.5 mph58%29.98 "HgN/A
5:20 PM81 °FSunny.8 mph58%30.01 "Hg10 mi
4:50 PM82 °FPassing clouds.10 mph51%30.01 "HgN/A
4:20 PM84 °FPassing clouds.12 mph40%30.01 "HgN/A
3:50 PM86 °FPassing clouds.9 mph38%30.01 "HgN/A
3:20 PM86 °FPassing clouds.8 mph33%30.01 "HgN/A
2:50 PM84 °FPassing clouds.8 mph37%29.98 "HgN/A
2:20 PM86 °FSunny.12 mph35%30.01 "Hg10 mi
1:50 PM86 °FPassing clouds.10 mph38%30.01 "HgN/A
1:20 PM86 °FPassing clouds.8 mph38%30.01 "HgN/A
12:50 PM86 °FPassing clouds.7 mph38%30.01 "HgN/A
12:20 PM86 °FPassing clouds.5 mph38%30.01 "HgN/A
11:50 AM86 °FSunny.2 mph31%30.01 "Hg10 mi
11:20 AM84 °FSunny.3 mph37%30.01 "Hg10 mi
10:50 AM84 °FSunny.2 mph35%30.01 "Hg10 mi
10:20 AM81 °FSunny.No wind37%30.01 "Hg10 mi
9:50 AM81 °FSunny.2 mph37%30.01 "Hg10 mi
9:20 AM77 °FPassing clouds.3 mph44%30.01 "HgN/A
8:50 AM73 °FSunny.6 mph50%30.01 "Hg10 mi
8:20 AM72 °FSunny.6 mph57%30.01 "Hg10 mi
7:50 AM68 °FClear.3 mph60%30.01 "HgN/A
7:20 AM64 °FSunny.2 mph68%30.01 "Hg10 mi
6:50 AM63 °FClear.5 mph68%30.01 "Hg10 mi
6:20 AM61 °FClear.5 mph72%30.01 "Hg10 mi
5:50 AM63 °FPassing clouds.3 mph64%30.01 "HgN/A
5:20 AM61 °FClear.3 mph72%29.98 "Hg10 mi
4:50 AM63 °FClear.6 mph73%29.98 "Hg10 mi
4:20 AM63 °FClear.5 mph73%29.98 "Hg10 mi
3:50 AM63 °FClear.5 mph73%29.98 "Hg10 mi
3:20 AM64 °FClear.3 mph68%29.98 "Hg10 mi
2:50 AM64 °FClear.3 mph68%29.98 "Hg10 mi
2:20 AM66 °FPassing clouds.5 mph68%29.98 "HgN/A
1:50 AM66 °FClear.3 mph73%29.98 "Hg10 mi
1:20 AM64 °FClear.3 mph78%30.01 "Hg10 mi
12:50 AM66 °FClear.3 mph78%29.98 "Hg10 mi
12:20 AM68 °FClear.2 mph78%30.01 "Hg10 mi
11:50 PM
Aug 19
66 °FClear.2 mph78%30.01 "Hg10 mi
11:20 PM68 °FClear.6 mph73%30.01 "Hg10 mi
10:50 PM68 °FClear.7 mph78%29.98 "Hg10 mi
10:20 PM70 °FPassing clouds.3 mph69%30.01 "HgN/A
9:50 PM70 °FPassing clouds.5 mph69%29.98 "HgN/A
Weather by CustomWeather, © 2014

See weather overviewHow to use our weather pages